Columbia, SC

8:45 PM EDT on August 18, 2017 (GMT -0400)
Columbia Metro

Weather History for KCAE - March, 2013

Change the Weather History Date:

Friday, March 15, 2013

  Actual Average Record
Temperature  
Mean Temperature 52 °F 55 °F  
Max Temperature 73 °F 68 °F 88 °F (1977)
Min Temperature 31 °F 43 °F 18 °F (1993)
Degree Days  
Heating Degree Days 13 10  
Month to date heating degree days 234 178  
Since 1 July heating degree days 1954 2277  
Cooling Degree Days 0 1  
Month to date cooling degree days 0 3  
Year to date cooling degree days 25 7  
Growing Degree Days 2 (Base 50)    
Moisture  
Dew Point 30 °F    
Average Humidity 54    
Maximum Humidity 85    
Minimum Humidity 23    
Precipitation  
Precipitation 0.00 in 0.12 in 1.53 in (2003)
Month to date precipitation 0.29 1.91  
Year to date precipitation 7.01 9.10  
Sea Level Pressure  
Sea Level Pressure 30.11 in    
Wind  
Wind Speed 6 mph (SW)    
Max Wind Speed 14 mph    
Max Gust Speed 21 mph    
Visibility 10 miles    
Events      
T = Trace of Precipitation, MM = Missing Value Source: NWS Daily Summary

Daily Weather History Graph

Daily Weather History Graph

Search for Another Location

Airport or City:

Trip Planner

Search our weather history database for the weather conditions in past years. The results will help you decide how hot, cold, wet, or windy it might be!

Date:

Astronomy

Mar. 15, 2013 Rise Set
Actual Time 7:34 AM EDT 7:32 PM EDT
Civil Twilight 7:09 AM EDT 7:57 PM EDT
Nautical Twilight 6:40 AM EDT 8:26 PM EDT
Astronomical Twilight 6:11 AM EDT 8:55 PM EDT
Moon 9:36 AM EDT (3/15) 11:31 PM EDT (3/15)
Length of Visible Light 12h 47m
Length of Day
11h 57m
Waxing Crescent, 15% of the Moon is Illuminated
Mar 15
Waxing Crescent
Mar 19
First Quarter
Mar 27
Full
Apr 3
Last Quarter
Apr 10
New

Hourly Weather History & Observations

Time (EDT) Temp. Windchill Dew Point Humidity Pressure Visibility Wind Dir Wind Speed Gust Speed Precip Events Conditions
12:56 AM 36.0 °F - 28.0 °F 73% 30.19 in 10.0 mi Calm Calm - N/A   Scattered Clouds
1:56 AM 37.9 °F - 28.0 °F 68% 30.18 in 8.0 mi Calm Calm - N/A   Scattered Clouds
2:56 AM 34.0 °F 31.0 °F 28.0 °F 79% 30.19 in 10.0 mi WSW 3.5 mph - N/A   Partly Cloudy
3:56 AM 32.0 °F 27.5 °F 26.1 °F 79% 30.18 in 10.0 mi West 4.6 mph - N/A   Clear
4:56 AM 30.9 °F 27.5 °F 26.1 °F 82% 30.20 in 9.0 mi West 3.5 mph - N/A   Clear
5:56 AM 32.0 °F - 27.0 °F 82% 30.21 in 8.0 mi Calm Calm - N/A   Clear
6:56 AM 30.9 °F 27.5 °F 27.0 °F 85% 30.21 in 9.0 mi SSW 3.5 mph - N/A   Clear
7:56 AM 33.1 °F - 26.1 °F 75% 30.23 in 10.0 mi Calm Calm - N/A   Clear
8:56 AM 37.9 °F 34.4 °F 28.9 °F 70% 30.24 in 9.0 mi WSW 4.6 mph - N/A   Clear
9:56 AM 46.9 °F - 28.9 °F 50% 30.23 in 10.0 mi Calm Calm - N/A   Clear
10:56 AM 53.1 °F - 24.1 °F 32% 30.21 in 10.0 mi Calm Calm - N/A   Clear
11:56 AM 57.9 °F - 19.9 °F 23% 30.19 in 10.0 mi SW 4.6 mph - N/A   Clear
12:56 PM 62.1 °F - 25.0 °F 24% 30.16 in 10.0 mi SW 11.5 mph 16.1 mph N/A   Partly Cloudy
1:56 PM 64.9 °F - 27.0 °F 24% 30.12 in 10.0 mi WSW 6.9 mph 17.3 mph N/A   Partly Cloudy
2:56 PM 70.0 °F - 30.9 °F 24% 30.06 in 10.0 mi SSW 12.7 mph 20.7 mph N/A   Partly Cloudy
3:56 PM 72.0 °F - 33.1 °F 24% 30.03 in 10.0 mi SW 10.4 mph 17.3 mph N/A   Partly Cloudy
4:56 PM 72.0 °F - 34.0 °F 25% 29.99 in 10.0 mi SW 13.8 mph 19.6 mph N/A   Partly Cloudy
5:56 PM 73.0 °F - 35.1 °F 25% 29.98 in 10.0 mi WSW 12.7 mph 20.7 mph N/A   Scattered Clouds
6:56 PM 72.0 °F - 35.1 °F 26% 29.97 in 10.0 mi SW 8.1 mph - N/A   Scattered Clouds
7:56 PM 66.9 °F - 36.0 °F 32% 29.98 in 10.0 mi SSW 8.1 mph - N/A   Scattered Clouds
8:56 PM 64.9 °F - 36.0 °F 34% 29.98 in 10.0 mi SSW 6.9 mph - N/A   Clear
9:56 PM 64.9 °F - 36.0 °F 34% 29.98 in 10.0 mi SW 12.7 mph - N/A   Clear
10:56 PM 64.0 °F - 36.0 °F 35% 29.98 in 10.0 mi SW 9.2 mph - N/A   Clear
11:56 PM 64.0 °F - 37.0 °F 37% 29.97 in 10.0 mi SW 9.2 mph 18.4 mph N/A   Clear